Weather in Lenino

Russia / Primorsky Krai     44°13′21″N   134°24′39″E
temp.,
°C
wind,
m/s
gust,
m/s
humid.,
%
clouds,
%
prec.,
mm/h
press.,
hPa
HPBL,
m
10 may, mon
mon1001:00+3wnw2399100 0.3 1003187
04:00+4wnw2699100 0.3 1005557
07:00+4wnw2399100 0.4 1007150
10:00+5wnw2597100 0.9 1008744
13:00+5wnw2596100 0.4 1010771
16:00+5wnw2597100 0.6 1010765
19:00+4wnw2499100 0.1 1011418
22:00+4wnw2399100 0.6 1013112
11 may, tue
tue1101:00+4wnw1299100 0.6 1013117
04:00+4wnw12100100 1.3 1014154
07:00+4nw1310099 0.7 1016213
10:00+8nw237582 0.9 10161055
13:00+8nw2373100 0.4 10171112
16:00+10nw237150 0.9 10171080
19:00+9e017560 0.2 1018138
22:00+4se229819 0.3 102146
12 may, wed
wed1201:00+4se2397100 0.0 1021195
04:00+4se2393100 0.0 1020291
07:00+4se2489100 0.0 1021424
10:00+8se347299 0.0 1019579
13:00+14sse355276 0.0 10151221
16:00+14sse4551100 0.0 10131295
19:00+10se2467100 0.0 1015313
22:00+5se2393100 0.4 101780
13 may, thu
thu1301:00+5s259598 1.2 1016272
04:00+2sse239816 1.2 101665
07:00+4s23930 0.0 101683
10:00+14sw13590 0.0 1013616
13:00+19wsw353114 0.0 10112720
16:00+20w45288 0.0 10102779
19:00+16wnw254887 0.0 1010122
22:00+9s2265100 0.0 101215
14 may, fri
fri1401:00+8ssw117842 0.0 101312
04:00+7ssw118426 0.0 101312
07:00+10s11703 0.0 101340
10:00+18sse25366 0.0 10091407
13:00+22sse3525100 0.0 10072631
16:00+21sw4531100 0.0 10052066
19:00+16sse2258100 0.0 100548
22:00+10sse2496100 3.6 1006134